Volver al catálogo

DELTA 2 DEB

LostHEO
NORAD 29041·DEBRIS·🇺🇸 United States

Lanzado Mar 25, 2000 desde Vandenberg Space Force Base

Loading…

Próximos Pases (próximas 24 horas)

TLE

ObsoletoSource: Space-Track

Época: May 20, 2008, 03:57 UTC

1 29041U 00017F   08141.16474781 -.00000091 +00000-0 +00000-0 0  9997
2 29041 091.8679 209.3387 7617690 336.5583 002.3689 01.68921020021683

Sigue DELTA 2 DEB en tiempo real con AllMySat

Download on the App Store